K2ATL Weather Reports


time (UTC)temp
C
wind
direction
speed
KPH
gust
KPH
rain 1hr
cm
rain 24hr
cm
rain mn
cm
humidity
%
barometer
mb
20260906111123 21 54 1.6 1.6 0.00 0.00 0.00 89 1099.6
20260906110618 21 55 1.6 4.8 0.00 0.00 0.00 89 1099.7
20260906110118 21 58 3.2 4.8 0.00 0.00 0.00 90 1099.6
20260906105613 21 53 3.2 4.8 0.00 0.00 0.00 90 1099.6
20260906105109 21 60 3.2 3.2 0.00 0.00 0.00 90 1099.5
20260906104607 21 55 1.6 3.2 0.00 0.00 0.00 91 1099.5
20260906104101 21 53 1.6 3.2 0.00 0.00 0.00 91 1099.4
20260906103600 21 52 1.6 3.2 0.00 0.00 0.00 90 1099.3
20260906103055 21 45 1.6 3.2 0.00 0.00 0.00 90 1099.4
20260906102555 21 45 1.6 3.2 0.00 0.00 0.00 91 1099.4
20260906102050 21 45 1.6 3.2 0.00 0.00 0.00 92 1099.3
20260906101545 21 45 3.2 3.2 0.00 0.00 0.00 91 1099.5
20260906101040 21 45 1.6 1.6 0.00 0.00 0.00 91 1099.3
20260906100535 22 45 0.0 0.0 0.00 0.00 0.00 87 1099.6
20260906100030 22 68 1.6 3.2 0.00 0.00 0.00 86 1099.6
20260906095524 21 95 0.0 3.2 0.00 0.00 0.00 88 1099.5
20260906095020 22 97 1.6 1.6 0.00 0.00 0.00 89 1099.5
20260906094519 23 100 3.2 3.2 0.00 0.00 0.00 85 1099.4
20260906094015 23 40 0.0 1.6 0.00 0.00 0.00 81 1099.5
20260906093511 23 42 3.2 3.2 0.00 0.00 0.00 82 1099.3
20260906093011 23 36 1.6 3.2 0.00 0.00 0.00 83 1099.4
20260906092511 22 38 3.2 3.2 0.00 0.00 0.00 84 1099.4
20260906092007 22 49 0.0 1.6 0.00 0.00 0.00 86 1099.5
20260906091502 21 49 0.0 0.0 0.00 0.00 0.00 87 1099.4
20260906090959 21 47 1.6 3.2 0.00 0.00 0.00 91 1099.5
20260906090459 21 40 0.0 1.6 0.00 0.00 0.00 90 1099.3
20260906085959 22 49 0.0 1.6 0.00 0.00 0.00 89 1099.6
20260906085458 23 60 1.6 1.6 0.00 0.00 0.00 86 1099.5
20260906084957 23 60 0.0 0.0 0.00 0.00 0.00 81 1099.2
20260906084452 24 60 0.0 1.6 0.00 0.00 0.00 79 1099.4
20260906083951 23 60 1.6 1.6 0.00 0.00 0.00 78 1099.4
20260906083447 23 60 0.0 1.6 0.00 0.00 0.00 81 1099.2
20260906082946 23 60 0.0 0.0 0.00 0.00 0.00 81 1099.3
20260906082441 23 60 0.0 0.0 0.00 0.00 0.00 82 1099.2
20260906081937 23 60 0.0 0.0 0.00 0.00 0.00 83 1099.2
20260906081432 22 60 0.0 0.0 0.00 0.00 0.00 84 1099.3
20260906080929 22 60 0.0 0.0 0.00 0.00 0.00 84 1099.2
20260906080425 22 60 0.0 1.6 0.00 0.00 0.00 83 1099.3
20260906075924 22 60 1.6 1.6 0.00 0.00 0.00 86 1099.0
20260906075420 23 60 1.6 1.6 0.00 0.00 0.00 84 1099.2
20260906074915 22 60 0.0 0.0 0.00 0.00 0.00 81 1099.3
20260906074414 22 59 0.0 0.0 0.00 0.00 0.00 85 1099.2
20260906073913 22 59 0.0 0.0 0.00 0.00 0.00 86 1099.1
20260906073408 22 59 0.0 0.0 0.00 0.00 0.00 86 1099.2
20260906072905 22 59 0.0 1.6 0.00 0.00 0.00 87 1099.2
20260906072400 23 59 1.6 3.2 0.00 0.00 0.00 85 1099.0
20260906071856 22 59 0.0 0.0 0.00 0.00 0.00 85 1099.2
20260906071351 22 59 0.0 1.6 0.00 0.00 0.00 86 1099.3
20260906070847 22 59 0.0 1.6 0.00 0.00 0.00 87 1099.3
20260906070343 22 59 1.6 1.6 0.00 0.00 0.00 88 1099.4
20260906065838 22 63 1.6 1.6 0.00 0.00 0.00 87 1099.4
20260906065332 23 54 3.2 3.2 0.00 0.00 0.00 85 1099.4
20260906064829 23 43 1.6 1.6 0.00 0.00 0.00 82 1099.3
20260906064325 23 43 0.0 0.0 0.00 0.00 0.00 81 1099.4
20260906063824 23 43 0.0 0.0 0.00 0.00 0.00 80 1099.4
20260906063320 23 43 0.0 0.0 0.00 0.00 0.00 80 1099.4
20260906062815 23 43 0.0 0.0 0.00 0.00 0.00 80 1099.5
20260906062314 23 43 1.6 1.6 0.00 0.00 0.00 81 1099.6
20260906061810 23 43 1.6 1.6 0.00 0.00 0.00 80 1099.6
20260906061306 24 43 1.6 1.6 0.00 0.00 0.00 76 1099.7
20260906060801 24 43 0.0 0.0 0.00 0.00 0.00 74 1099.7
20260906060259 24 43 0.0 1.6 0.00 0.00 0.00 74 1099.6
20260906055754 24 55 1.6 1.6 0.00 0.00 0.00 74 1099.9
20260906055249 23 103 0.0 0.0 0.00 0.00 0.00 76 1100.0
20260906054744 23 103 0.0 0.0 0.00 0.00 0.00 78 1100.1
20260906054240 24 103 0.0 0.0 0.00 0.00 0.00 77 1100.1
20260906053736 24 108 1.6 1.6 0.00 0.00 0.00 77 1100.0
20260906053232 23 30 1.6 1.6 0.00 0.00 0.00 79 1100.1
20260906052727 23 30 0.0 3.2 0.00 0.00 0.00 80 1100.2
20260906052223 23 30 1.6 3.2 0.00 0.00 0.00 82 1100.4
20260906051720 22 75 0.0 0.0 0.00 0.00 0.00 88 1100.4
20260906051219 22 75 0.0 1.6 0.00 0.00 0.00 89 1100.4
20260906050714 22 75 0.0 0.0 0.00 0.00 0.00 89 1100.5
20260906050210 22 75 0.0 0.0 0.00 0.00 0.00 90 1100.6
20260906045708 22 19 0.0 0.0 0.00 0.00 0.00 93 1100.5
20260906045203 22 19 0.0 0.0 0.00 0.00 0.00 94 1100.5
20260906044659 22 19 0.0 1.6 0.00 0.00 0.00 94 1100.4
20260906044154 22 19 1.6 1.6 0.00 0.00 0.00 94 1100.4
20260906043650 22 19 1.6 3.2 0.00 0.00 0.00 94 1100.7
20260906043145 22 23 3.2 3.2 0.00 0.00 0.00 93 1100.6
20260906042645 22 108 1.6 1.6 0.00 0.00 0.00 93 1100.9
20260906042139 22 98 0.0 3.2 0.00 0.00 0.00 93 1100.7
20260906041635 23 22 0.0 0.0 0.00 0.00 0.00 90 1100.8
20260906041129 23 21 1.6 1.6 0.00 0.00 0.00 91 1100.7
20260906040626 23 21 1.6 3.2 0.00 0.00 0.00 91 1100.6
20260906040121 23 14 3.2 4.8 0.00 0.13 0.13 90 1100.6
20260906035616 22 54 0.0 1.6 0.00 0.13 0.13 91 1100.6
20260906035112 22 54 0.0 0.0 0.00 0.13 0.13 92 1100.6
20260906034611 22 54 0.0 0.0 0.00 0.13 0.13 92 1100.4
20260906034106 22 54 0.0 3.2 0.00 0.13 0.13 91 1100.4
20260906033602 22 58 0.0 0.0 0.00 0.13 0.13 93 1100.5
20260906033057 22 58 0.0 1.6 0.00 0.13 0.13 93 1100.6
20260906032554 22 58 0.0 0.0 0.00 0.13 0.13 94 1100.6
20260906032053 22 58 0.0 1.6 0.00 0.13 0.13 93 1100.4
20260906031549 22 59 0.0 3.2 0.00 0.13 0.13 93 1100.4
20260906031044 24 117 4.8 8.0 0.00 0.13 0.13 87 1100.4
20260906030543 25 91 1.6 1.6 0.00 0.13 0.13 82 1100.3
20260906030044 24 58 1.6 1.6 0.00 0.13 0.13 84 1100.4
20260906025544 23 58 1.6 1.6 0.00 0.13 0.13 87 1100.5
20260906025042 23 58 0.0 0.0 0.00 0.13 0.13 87 1100.3
20260906024538 23 58 0.0 1.6 0.00 0.13 0.13 87 1100.5
20260906024037 23 58 0.0 1.6 0.00 0.13 0.13 88 1100.4
20260906023533 23 58 1.6 1.6 0.00 0.13 0.13 89 1100.5
20260906023028 23 58 1.6 1.6 0.00 0.13 0.13 89 1100.6
20260906022523 23 58 0.0 1.6 0.00 0.13 0.13 89 1100.3
20260906022019 23 58 0.0 1.6 0.00 0.13 0.13 89 1100.4
20260906021514 23 58 0.0 3.2 0.00 0.13 0.13 90 1100.3
20260906021008 23 56 1.6 3.2 0.00 0.13 0.13 90 1100.4
20260906020508 23 49 1.6 1.6 0.00 0.13 0.13 89 1100.5
20260906020008 23 58 1.6 3.2 0.00 0.13 0.13 90 1100.6
20260906015506 23 54 3.2 3.2 0.00 0.13 0.13 89 1100.4
20260906015001 23 58 1.6 1.6 0.00 0.13 0.13 88 1100.5
20260906014501 24 58 1.6 1.6 0.00 0.13 0.13 88 1100.4
20260906013957 24 58 1.6 3.2 0.00 0.13 0.13 87 1100.2
20260906013452 24 58 3.2 3.2 0.00 0.13 0.13 87 1100.0
20260906012949 24 57 1.6 1.6 0.00 0.13 0.13 88 1099.9
20260906012448 25 58 1.6 3.2 0.00 0.13 0.13 86 1099.7
20260906011948 24 57 3.2 3.2 0.00 0.13 0.13 86 1099.5
20260906011443 24 60 3.2 4.8 0.00 0.13 0.13 88 1099.3
20260906010938 25 57 0.0 3.2 0.00 0.13 0.13 87 1099.5
20260906010434 24 67 4.8 4.8 0.00 0.13 0.13 89 1099.4
20260906005930 23 60 1.6 8.0 0.00 0.13 0.13 89 1099.4
20260906005430 23 56 4.8 4.8 0.00 0.13 0.13 95 1099.4
20260906004928 23 97 3.2 4.8 0.00 0.13 0.13 96 1099.2
20260906004422 23 58 1.6 3.2 0.00 0.13 0.13 93 1099.2
20260906003918 24 57 4.8 4.8 0.00 0.13 0.13 86 1099.0
20260906003413 24 227 0.0 0.0 0.00 0.13 0.13 88 1098.8
20260906002908 24 227 0.0 0.0 0.00 0.13 0.13 87 1098.8
20260906002408 24 227 0.0 0.0 0.00 0.13 0.13 88 1098.8
20260906001904 24 227 0.0 0.0 0.00 0.13 0.13 88 1098.9
20260906001359 24 227 0.0 1.6 0.00 0.13 0.13 88 1099.1
20260906000859 24 227 1.6 1.6 0.00 0.13 0.13 87 1099.0
20260906000400 25 24 1.6 3.2 0.00 0.13 0.13 86 1099.1
20260905235855 25 47 0.0 1.6 0.00 0.13 0.13 83 1098.9
20260905235349 26 51 0.0 1.6 0.00 0.13 0.13 80 1099.1
20260905234844 26 52 0.0 1.6 0.00 0.13 0.13 77 1099.1
20260905234339 26 52 1.6 1.6 0.00 0.13 0.13 79 1099.1
20260905233834 25 52 0.0 1.6 0.00 0.13 0.13 81 1099.1
20260905233329 25 57 1.6 1.6 0.00 0.13 0.13 87 1099.2
20260905232828 25 57 0.0 1.6 0.00 0.13 0.13 88 1099.2
20260905232325 25 57 0.0 1.6 0.00 0.13 0.13 88 1099.3
20260905231820 24 57 0.0 1.6 0.00 0.13 0.13 89 1099.3
20260905231315 24 57 0.0 1.6 0.00 0.13 0.13 90 1099.1
20260905230812 24 57 1.6 1.6 0.00 0.13 0.13 89 1099.3
20260905230309 24 57 0.0 1.6 0.00 0.13 0.13 87 1099.4
20260905225809 25 57 3.2 3.2 0.00 0.13 0.13 88 1099.4
20260905225306 25 52 1.6 1.6 0.00 0.13 0.13 87 1099.2
20260905224804 25 50 1.6 1.6 0.00 0.13 0.13 87 1099.3
20260905224259 25 54 0.0 1.6 0.00 0.13 0.13 85 1099.2
20260905223755 25 56 1.6 4.8 0.00 0.13 0.13 85 1099.4
20260905223252 25 58 3.2 4.8 0.00 0.13 0.13 85 1099.4
20260905222747 25 55 0.0 1.6 0.00 0.13 0.13 84 1099.4
20260905222246 23 54 0.0 0.0 0.00 0.13 0.13 91 1099.5
20260905221742 24 56 1.6 1.6 0.00 0.13 0.13 89 1099.4
20260905221239 25 35 0.0 1.6 0.00 0.13 0.13 86 1099.3
20260905220734 25 35 1.6 1.6 0.00 0.13 0.13 86 1099.2
20260905220230 25 34 1.6 1.6 0.00 0.13 0.13 85 1099.1
20260905215729 25 34 0.0 0.0 0.00 0.13 0.13 87 1099.0
20260905215226 25 34 0.0 1.6 0.00 0.13 0.13 88 1099.1
20260905214721 24 34 1.6 3.2 0.00 0.13 0.13 88 1099.0
20260905214216 24 44 0.0 0.0 0.00 0.13 0.13 89 1099.0
20260905213712 24 44 0.0 1.6 0.00 0.13 0.13 89 1099.0
20260905213208 24 44 0.0 1.6 0.00 0.13 0.13 90 1099.1
20260905212703 23 42 0.0 3.2 0.00 0.13 0.13 91 1099.2
20260905212202 24 17 0.0 3.2 0.00 0.13 0.13 89 1099.5
20260905211656 22 32 3.2 3.2 0.00 0.13 0.13 90 1099.9
20260905211152 22 40 0.0 1.6 0.00 0.13 0.13 87 1100.0
20260905210649 21 42 1.6 1.6 0.18 0.13 0.13 89 1099.6
20260905210148 21 43 3.2 3.2 0.61 0.13 0.13 89 1099.9
20260905205647 23 49 3.2 4.8 0.61 0.10 0.10 88 1100.0
20260905205141 26 44 1.6 8.0 0.18 0.03 0.03 86 1100.0
20260905204640 29 53 1.6 3.2 0.00 0.00 0.00 80 1100.0
20260905204137 31 55 1.6 3.2 0.00 0.00 0.00 65 1099.9
20260905203636 31 359 1.6 1.6 0.00 0.00 0.00 60 1099.5
20260905203132 32 359 0.0 1.6 0.00 0.00 0.00 59 1099.3
20260905202627 32 359 0.0 0.0 0.00 0.00 0.00 59 1099.5
20260905202123 32 359 0.0 0.0 0.00 0.00 0.00 59 1099.6
20260905201618 32 359 0.0 1.6 0.00 0.00 0.00 59 1099.6
20260905201118 33 359 0.0 1.6 0.00 0.00 0.00 58 1099.7
20260905200614 33 359 0.0 1.6 0.00 0.00 0.00 56 1099.9
20260905200109 34 359 0.0 1.6 0.00 0.00 0.00 55 1099.9
20260905195601 33 359 1.6 3.2 0.00 0.00 0.00 54 1099.7
20260905195057 33 358 1.6 4.8 0.00 0.00 0.00 56 1099.7
20260905194557 35 2 3.2 3.2 0.00 0.00 0.00 52 1099.6
20260905194056 33 329 4.8 4.8 0.00 0.00 0.00 54 1099.7
20260905193551 35 352 3.2 3.2 0.00 0.00 0.00 49 1099.9
20260905193046 35 33 3.2 3.2 0.00 0.00 0.00 47 1100.0
20260905192542 35 35 3.2 3.2 0.00 0.00 0.00 47 1100.3
20260905192038 35 40 0.0 1.6 0.00 0.00 0.00 48 1100.2
20260905191536 35 39 3.2 3.2 0.00 0.00 0.00 50 1100.2
20260905191035 33 63 0.0 1.6 0.00 0.00 0.00 50 1100.4
20260905190534 32 21 1.6 1.6 0.00 0.00 0.00 53 1100.4
20260905190034 33 21 1.6 3.2 0.00 0.00 0.00 52 1100.4
20260905185533 33 19 3.2 3.2 0.00 0.00 0.00 53 1100.3
20260905185033 32 61 1.6 3.2 0.00 0.00 0.00 58 1100.3
20260905184527 32 358 1.6 3.2 0.00 0.00 0.00 53 1100.2
20260905184026 31 15 1.6 4.8 0.00 0.00 0.00 57 1100.4
20260905183526 31 2 1.6 3.2 0.00 0.00 0.00 59 1100.3
20260905183021 31 355 3.2 3.2 0.00 0.00 0.00 58 1100.4
20260905182521 32 356 1.6 3.2 0.00 0.00 0.00 58 1100.6
20260905182021 31 2 1.6 3.2 0.00 0.00 0.00 57 1100.4
20260905181516 31 45 1.6 1.6 0.00 0.00 0.00 58 1100.7
20260905181015 32 335 3.2 4.8 0.00 0.00 0.00 57 1100.9
20260905180510 32 10 1.6 3.2 0.00 0.00 0.00 52 1101.0
20260905180005 33 10 1.6 1.6 0.00 0.00 0.00 52 1100.9
20260905175504 32 10 3.2 3.2 0.00 0.00 0.00 52 1100.9
20260905175000 32 10 1.6 3.2 0.00 0.00 0.00 52 1100.8
20260905174455 31 10 1.6 3.2 0.00 0.00 0.00 56 1100.9
20260905173951 32 10 0.0 1.6 0.00 0.00 0.00 56 1101.0
20260905173447 32 10 1.6 3.2 0.00 0.00 0.00 54 1101.1
20260905172942 30 10 1.6 3.2 0.00 0.00 0.00 58 1101.2
20260905172440 30 10 1.6 4.8 0.00 0.00 0.00 59 1101.2
20260905171936 30 26 1.6 3.2 0.00 0.00 0.00 61 1101.4
20260905171432 29 26 1.6 3.2 0.00 0.00 0.00 62 1101.4
20260905170928 30 26 1.6 3.2 0.00 0.00 0.00 63 1101.2
20260905170424 28 27 1.6 3.2 0.00 0.00 0.00 63 1101.4
20260905165924 29 26 3.2 3.2 0.00 0.00 0.00 64 1101.4
20260905165419 29 15 3.2 3.2 0.00 0.00 0.00 63 1101.0
20260905164914 28 355 1.6 3.2 0.00 0.00 0.00 65 1101.6
20260905164408 30 353 1.6 4.8 0.00 0.00 0.00 64 1101.6
20260905163903 28 31 0.0 3.2 0.00 0.00 0.00 65 1101.6
20260905163401 29 16 1.6 3.2 0.00 0.00 0.00 64 1101.6
20260905162856 29 22 1.6 3.2 0.00 0.00 0.00 63 1101.7
20260905162355 30 21 1.6 1.6 0.00 0.00 0.00 61 1101.5
20260905161850 30 22 1.6 1.6 0.00 0.00 0.00 59 1101.9
20260905161350 30 22 0.0 1.6 0.00 0.00 0.00 61 1102.1
20260905160848 31 22 0.0 1.6 0.00 0.00 0.00 58 1102.0
20260905160343 30 22 0.0 1.6 0.00 0.00 0.00 60 1101.9
20260905155837 29 21 1.6 4.8 0.00 0.00 0.00 68 1101.9
20260905155337 30 28 0.0 3.2 0.00 0.00 0.00 65 1101.9
20260905154836 30 31 0.0 1.6 0.00 0.00 0.00 61 1102.0
20260905154332 29 31 0.0 1.6 0.00 0.00 0.00 65 1102.1
20260905153827 28 31 0.0 1.6 0.00 0.00 0.00 68 1102.3
20260905153324 27 19 0.0 3.2 0.00 0.00 0.00 68 1102.3
20260905152823 28 338 1.6 4.8 0.00 0.00 0.00 67 1102.1
20260905152322 28 16 0.0 1.6 0.00 0.00 0.00 67 1102.4
20260905151818 27 16 0.0 0.0 0.00 0.00 0.00 67 1102.1
20260905151313 26 15 1.6 1.6 0.00 0.00 0.00 71 1102.2
20260905150813 27 351 3.2 3.2 0.00 0.00 0.00 70 1102.2
20260905150313 26 351 0.0 3.2 0.00 0.00 0.00 73 1102.1
20260905145811 26 36 0.0 3.2 0.00 0.00 0.00 73 1102.2
20260905145310 27 356 0.0 4.8 0.00 0.00 0.00 73 1102.3
20260905144809 27 54 0.0 0.0 0.00 0.00 0.00 73 1102.3
20260905144305 26 54 0.0 0.0 0.00 0.00 0.00 73 1102.3
20260905143804 25 54 0.0 0.0 0.00 0.00 0.00 77 1102.2
20260905143258 25 53 0.0 0.0 0.00 0.00 0.00 78 1102.4
20260905142757 25 53 0.0 0.0 0.00 0.00 0.00 80 1102.5
20260905142251 25 53 0.0 0.0 0.00 0.00 0.00 81 1102.4
20260905141748 26 53 0.0 0.0 0.00 0.00 0.00 81 1102.3
20260905141244 26 53 0.0 0.0 0.00 0.00 0.00 80 1102.4
20260905140739 26 53 0.0 0.0 0.00 0.00 0.00 81 1102.3
20260905140239 26 53 0.0 0.0 0.00 0.00 0.00 81 1102.5
20260905135737 26 53 0.0 0.0 0.00 0.00 0.00 80 1102.4
20260905135234 26 53 0.0 0.0 0.00 0.00 0.00 81 1102.4
20260905134733 25 53 0.0 0.0 0.00 0.00 0.00 81 1102.5
20260905134233 26 53 0.0 0.0 0.00 0.00 0.00 80 1102.4
20260905133728 25 53 0.0 0.0 0.00 0.00 0.00 80 1102.3
20260905133223 25 53 0.0 0.0 0.00 0.00 0.00 81 1102.5
20260905132722 25 53 0.0 0.0 0.00 0.00 0.00 81 1102.6
20260905132218 25 53 0.0 0.0 0.00 0.00 0.00 82 1102.6
20260905131712 25 53 0.0 0.0 0.00 0.00 0.00 82 1102.5
20260905131208 25 53 0.0 0.0 0.00 0.00 0.00 82 1102.6
20260905130702 25 53 0.0 0.0 0.00 0.00 0.00 82 1102.5
20260905130201 25 53 0.0 1.6 0.00 0.00 0.00 82 1102.6
20260905125655 24 53 0.0 0.0 0.00 0.00 0.00 83 1102.6
20260905125151 24 53 0.0 1.6 0.00 0.00 0.00 83 1102.6
20260905124648 24 53 1.6 1.6 0.00 0.00 0.00 83 1102.5
20260905124144 24 53 1.6 1.6 0.00 0.00 0.00 84 1102.6
20260905123638 24 53 1.6 1.6 0.00 0.00 0.00 84 1102.5
20260905123136 24 53 1.6 1.6 0.00 0.00 0.00 83 1102.4
20260905122635 25 53 1.6 3.2 0.00 0.00 0.00 83 1102.4
20260905122130 25 53 0.0 0.0 0.00 0.00 0.00 78 1102.2
20260905121625 25 53 0.0 0.0 0.00 0.00 0.00 78 1102.4
20260905121120 25 53 0.0 0.0 0.00 0.00 0.00 80 1102.5
20260905120619 25 53 0.0 0.0 0.00 0.00 0.00 79 1102.2
20260905120114 25 53 0.0 0.0 0.00 0.00 0.00 80 1102.2
20260905115613 24 53 0.0 0.0 0.00 0.00 0.00 81 1102.1
20260905115108 25 53 0.0 1.6 0.00 0.00 0.00 82 1102.2
20260905114608 24 53 0.0 1.6 0.00 0.00 0.00 80 1102.3
20260905114107 23 53 0.0 1.6 0.00 0.00 0.00 83 1102.1
20260905113602 23 53 1.6 3.2 0.00 0.00 0.00 84 1102.0
20260905113057 24 54 1.6 3.2 0.00 0.00 0.00 82 1102.0
20260905112552 25 59 0.0 1.6 0.00 0.00 0.00 79 1101.9
20260905112048 25 59 0.0 0.0 0.00 0.00 0.00 79 1101.9
20260905111543 25 59 0.0 0.0 0.00 0.00 0.00 80 1101.6